Saginaw Browne, MI

5:55 PM EDT on May 21, 2018 (GMT -0400)
Saginaw County-Browne

Weather History for KHYX - April, 2014

Change the Weather History Date:

Saturday, April 5, 2014

  Actual Average (KMBS) Record (KMBS)
Temperature  
Mean Temperature 39 °F -  
Max Temperature 46 °F 48 °F 75 °F (2005)
Min Temperature 32 °F 30 °F 19 °F (2016)
Degree Days  
Heating Degree Days 26    
Moisture  
Dew Point 22 °F    
Average Humidity 56    
Maximum Humidity 81    
Minimum Humidity 34    
Precipitation  
Precipitation 0.00 in - - ()
Sea Level Pressure  
Sea Level Pressure 30.01 in    
Wind  
Wind Speed 17 mph (WNW)    
Max Wind Speed 24 mph    
Max Gust Speed 32 mph    
Visibility 10 miles    
Events      
Averages and records for this station are not official NWS values.
T = Trace of Precipitation, MM = Missing Value Source: NWS Daily Summary

Daily Weather History Graph

Daily Weather History Graph

Search for Another Location

Airport or City:

Astronomy

Apr. 05, 2014 Rise Set
Actual Time 7:10 AM EDT 8:06 PM EDT
Civil Twilight 6:41 AM EDT 8:35 PM EDT
Nautical Twilight 6:06 AM EDT 9:10 PM EDT
Astronomical Twilight 5:30 AM EDT 9:47 PM EDT
Moon 11:10 AM EDT (4/5) 1:21 AM EDT (4/5)
Length of Visible Light 13h 54m
Length of Day
12h 56m
Waxing Crescent, 34% of the Moon is Illuminated
Apr 5
Waxing Crescent
Apr 7
First Quarter
Apr 15
Full
Apr 22
Last Quarter
Apr 29
New

Hourly Weather History & Observations

Time (EDT) Temp. Windchill Dew Point Humidity Pressure Visibility Wind Dir Wind Speed Gust Speed Precip Events Conditions
12:15 AM 35.6 °F 24.5 °F 28.4 °F 75% 29.67 in 10.0 mi West 20.7 mph 31.1 mph N/A   Overcast
12:35 AM 33.8 °F 22.5 °F 28.4 °F 81% 29.68 in 10.0 mi West 19.6 mph 31.1 mph N/A   Overcast
12:55 AM 33.8 °F 21.9 °F 28.4 °F 81% 29.69 in 10.0 mi West 21.9 mph 28.8 mph N/A   Overcast
1:15 AM 33.8 °F 22.2 °F 28.4 °F 81% 29.71 in 10.0 mi West 20.7 mph 28.8 mph N/A   Overcast
1:34 AM 33.8 °F 22.5 °F 26.6 °F 75% 29.72 in 10.0 mi West 19.6 mph 25.3 mph N/A   Overcast
1:55 AM 33.8 °F 21.6 °F 26.6 °F 75% 29.73 in 10.0 mi West 23.0 mph 31.1 mph N/A   Overcast
2:15 AM 33.8 °F 21.9 °F 26.6 °F 75% 29.75 in 10.0 mi West 21.9 mph 27.6 mph N/A   Overcast
2:35 AM 32.0 °F 19.5 °F 24.8 °F 75% 29.76 in 10.0 mi West 21.9 mph 25.3 mph N/A   Overcast
2:55 AM 32.0 °F 21.2 °F 23.0 °F 69% 29.78 in 10.0 mi West 16.1 mph 26.5 mph N/A   Overcast
3:15 AM 32.0 °F 18.9 °F 23.0 °F 69% 29.80 in 10.0 mi West 24.2 mph 32.2 mph N/A   Overcast
3:34 AM 32.0 °F 19.5 °F 23.0 °F 69% 29.81 in 10.0 mi West 21.9 mph 27.6 mph N/A   Overcast
3:55 AM 32.0 °F 19.2 °F 23.0 °F 69% 29.82 in 10.0 mi WNW 23.0 mph 28.8 mph N/A   Overcast
4:15 AM 32.0 °F 21.6 °F 21.2 °F 64% 29.84 in 10.0 mi WNW 15.0 mph - N/A   Overcast
4:34 AM 32.0 °F 19.8 °F 21.2 °F 64% 29.86 in 10.0 mi WNW 20.7 mph 26.5 mph N/A   Overcast
4:55 AM 32.0 °F 20.5 °F 21.2 °F 64% 29.87 in 10.0 mi WNW 18.4 mph 27.6 mph N/A   Overcast
5:15 AM 32.0 °F 20.1 °F 21.2 °F 64% 29.89 in 10.0 mi WNW 19.6 mph 28.8 mph N/A   Overcast
5:34 AM 32.0 °F 19.5 °F 21.2 °F 64% 29.90 in 10.0 mi WNW 21.9 mph 27.6 mph N/A   Overcast
5:55 AM 32.0 °F 19.8 °F 21.2 °F 64% 29.91 in 10.0 mi WNW 20.7 mph 27.6 mph N/A   Overcast
6:15 AM 32.0 °F 22.5 °F 21.2 °F 64% 29.92 in 10.0 mi WNW 12.7 mph 23.0 mph N/A   Overcast
6:34 AM 32.0 °F 21.2 °F 23.0 °F 69% 29.93 in 10.0 mi WNW 16.1 mph 25.3 mph N/A   Overcast
6:55 AM 32.0 °F 20.8 °F 23.0 °F 69% 29.94 in 10.0 mi WNW 17.3 mph 25.3 mph N/A   Overcast
7:15 AM 32.0 °F 22.5 °F 23.0 °F 69% 29.96 in 10.0 mi WNW 12.7 mph 21.9 mph N/A   Overcast
7:35 AM 32.0 °F 22.1 °F 23.0 °F 69% 29.96 in 10.0 mi WNW 13.8 mph 26.5 mph N/A   Overcast
7:55 AM 32.0 °F 20.1 °F 23.0 °F 69% 29.98 in 10.0 mi WNW 19.6 mph 27.6 mph N/A   Overcast
8:15 AM 32.0 °F 21.6 °F 23.0 °F 69% 29.99 in 10.0 mi WNW 15.0 mph 26.5 mph N/A   Mostly Cloudy
8:35 AM 32.0 °F 19.8 °F 23.0 °F 69% 30.00 in 10.0 mi WNW 20.7 mph 27.6 mph N/A   Scattered Clouds
8:55 AM 32.0 °F 20.1 °F 21.2 °F 64% 30.01 in 10.0 mi WNW 19.6 mph 28.8 mph N/A   Scattered Clouds
9:15 AM 32.0 °F 20.5 °F 21.2 °F 64% 30.02 in 10.0 mi WNW 18.4 mph 25.3 mph N/A   Clear
9:35 AM 32.0 °F 19.5 °F 21.2 °F 64% 30.03 in 10.0 mi WNW 21.9 mph 29.9 mph N/A   Clear
9:55 AM 33.8 °F 24.3 °F 23.0 °F 65% 30.04 in 10.0 mi WNW 13.8 mph 20.7 mph N/A   Clear
10:15 AM 33.8 °F 23.5 °F 21.2 °F 60% 30.06 in 10.0 mi WNW 16.1 mph 27.6 mph N/A   Clear
10:35 AM 35.6 °F 25.5 °F 23.0 °F 60% 30.06 in 10.0 mi WNW 17.3 mph 24.2 mph N/A   Clear
10:55 AM 35.6 °F 25.5 °F 23.0 °F 60% 30.06 in 10.0 mi WNW 17.3 mph 24.2 mph N/A   Clear
11:15 AM 35.6 °F 24.8 °F 23.0 °F 60% 30.07 in 10.0 mi NW 19.6 mph 26.5 mph N/A   Clear
11:35 AM 37.4 °F 27.5 °F 24.8 °F 60% 30.08 in 10.0 mi WNW 18.4 mph 24.2 mph N/A   Clear
11:55 AM 37.4 °F 27.8 °F 24.8 °F 60% 30.08 in 10.0 mi WNW 17.3 mph 24.2 mph N/A   Clear
12:15 PM 39.2 °F 30.2 °F 24.8 °F 56% 30.09 in 10.0 mi West 17.3 mph - N/A   Clear
12:35 PM 41.0 °F 33.5 °F 23.0 °F 49% 30.09 in 10.0 mi West 13.8 mph 23.0 mph N/A   Clear
12:55 PM 41.0 °F 32.5 °F 24.8 °F 53% 30.09 in 10.0 mi West 17.3 mph 20.7 mph N/A   Clear
1:15 PM 42.8 °F 35.4 °F 23.0 °F 46% 30.10 in 10.0 mi West 15.0 mph 25.3 mph N/A   Clear
1:34 PM 42.8 °F 35.8 °F 26.6 °F 53% 30.10 in 10.0 mi WNW 13.8 mph 21.9 mph N/A   Clear
1:55 PM 42.8 °F 35.4 °F 26.6 °F 53% 30.10 in 10.0 mi West 15.0 mph 23.0 mph N/A   Clear
2:15 PM 44.6 °F 37.4 °F 26.6 °F 49% 30.10 in 10.0 mi West 16.1 mph 19.6 mph N/A   Clear
2:34 PM 44.6 °F 38.4 °F 23.0 °F 43% 30.10 in 10.0 mi WNW 12.7 mph 21.9 mph N/A   Clear
2:55 PM 44.6 °F 37.8 °F 23.0 °F 43% 30.10 in 10.0 mi WNW 15.0 mph 21.9 mph N/A   Clear
3:15 PM 44.6 °F 36.6 °F 21.2 °F 39% 30.10 in 10.0 mi West 19.6 mph 24.2 mph N/A   Clear
3:34 PM 46.4 °F 39.5 °F 21.2 °F 37% 30.11 in 10.0 mi WNW 17.3 mph 23.0 mph N/A   Clear
3:55 PM 46.4 °F 39.8 °F 19.4 °F 34% 30.11 in 10.0 mi WNW 16.1 mph 20.7 mph N/A   Clear
4:15 PM 46.4 °F 40.4 °F 21.2 °F 37% 30.11 in 10.0 mi WNW 13.8 mph 23.0 mph N/A   Clear
4:34 PM 46.4 °F 40.1 °F 19.4 °F 34% 30.11 in 10.0 mi WNW 15.0 mph 23.0 mph N/A   Clear
4:55 PM 46.4 °F 40.1 °F 21.2 °F 37% 30.11 in 10.0 mi NW 15.0 mph 18.4 mph N/A   Clear
5:15 PM 46.4 °F 41.5 °F 19.4 °F 34% 30.11 in 10.0 mi WNW 10.4 mph - N/A   Clear
5:35 PM 46.4 °F 41.9 °F 21.2 °F 37% 30.11 in 10.0 mi WNW 9.2 mph 17.3 mph N/A   Clear
5:55 PM 46.4 °F 41.9 °F 21.2 °F 37% 30.11 in 10.0 mi West 9.2 mph 16.1 mph N/A   Clear
6:15 PM 46.4 °F 41.5 °F 19.4 °F 34% 30.12 in 10.0 mi WNW 10.4 mph 17.3 mph N/A   Clear
6:35 PM 46.4 °F 40.4 °F 19.4 °F 34% 30.12 in 10.0 mi WNW 13.8 mph - N/A   Clear
6:55 PM 46.4 °F 42.9 °F 19.4 °F 34% 30.13 in 10.0 mi West 6.9 mph - N/A   Clear
7:15 PM 44.6 °F 39.7 °F 17.6 °F 34% 30.13 in 10.0 mi WNW 9.2 mph - N/A   Clear
7:35 PM 42.8 °F 38.6 °F 19.4 °F 39% 30.13 in 10.0 mi WNW 6.9 mph - N/A   Clear
7:55 PM 42.8 °F 38.0 °F 19.4 °F 39% 30.13 in 10.0 mi WNW 8.1 mph - N/A   Clear
8:15 PM 39.2 °F 35.0 °F 23.0 °F 52% 30.13 in 10.0 mi West 5.8 mph - N/A   Clear
8:35 PM 41.0 °F 39.0 °F 19.4 °F 42% 30.14 in 10.0 mi West 3.5 mph - N/A   Clear
8:55 PM 39.2 °F 35.0 °F 19.4 °F 45% 30.14 in 10.0 mi West 5.8 mph - N/A   Clear
9:15 PM 37.4 °F 32.8 °F 23.0 °F 56% 30.15 in 10.0 mi West 5.8 mph - N/A   Clear
9:35 PM 37.4 °F 34.9 °F 21.2 °F 52% 30.15 in 10.0 mi West 3.5 mph - N/A   Clear
9:55 PM 37.4 °F 32.8 °F 19.4 °F 48% 30.16 in 10.0 mi WNW 5.8 mph - N/A   Clear
10:15 PM 37.4 °F 33.8 °F 19.4 °F 48% 30.16 in 10.0 mi West 4.6 mph - N/A   Clear
10:35 PM 37.4 °F 34.9 °F 19.4 °F 48% 30.16 in 10.0 mi West 3.5 mph - N/A   Clear
10:55 PM 35.6 °F 32.8 °F 19.4 °F 52% 30.16 in 10.0 mi WSW 3.5 mph - N/A   Clear
11:15 PM 33.8 °F 29.6 °F 21.2 °F 60% 30.16 in 10.0 mi WSW 4.6 mph - N/A   Clear
11:35 PM 32.0 °F 27.5 °F 21.2 °F 64% 30.16 in 10.0 mi SW 4.6 mph - N/A   Clear
11:55 PM 32.0 °F 26.4 °F 23.0 °F 69% 30.16 in 10.0 mi SW 5.8 mph - N/A   Clear